Weather History for PAOM - July, 2013

Change the Weather History Date:

Tuesday, July 2, 2013

  Actual Average Record
Temperature  
Mean Temperature 48 °F 52 °F  
Max Temperature 50 °F 58 °F 78 °F (1936)
Min Temperature 45 °F 45 °F 32 °F (1935)
Degree Days  
Heating Degree Days 17 13  
Month to date heating degree days 30 26  
Since 1 June heating degree days 506 542  
Since 1 July heating degree days 30 26  
Cooling Degree Days 0    
Month to date cooling degree days 0  
Year to date cooling degree days 7  
Since 1 June cooling degree days 7  
Moisture  
Dew Point 45 °F    
Average Humidity 0    
Maximum Humidity 0    
Minimum Humidity 0    
Precipitation  
Precipitation 0.31 in 0.05 in 0.51 in (1916)
Month to date precipitation 0.36 0.09  
Year to date precipitation 7.14 5.21  
Snow  
Snow 0.00 in 0.00 in 0.00 in (2014)
Month to date snowfall 0.0 0.0  
Since 1 June snowfall 0.1 0.3  
Since 1 July snowfall 0.0 0.0  
Snow Depth 0.00 in    
Sea Level Pressure  
Sea Level Pressure 29.41 in    
Wind  
Wind Speed 12 mph (SE)    
Max Wind Speed 20 mph    
Max Gust Speed 24 mph    
Visibility 8 miles    
Events Rain    
T = Trace of Precipitation, MM = Missing Value Source: NWS Daily Summary

Daily Weather History Graph

Daily Weather History Graph

Search for Another Location

Airport or City:

Trip Planner

Search our weather history database for the weather conditions in past years. The results will help you decide how hot, cold, wet, or windy it might be!

Date:

Astronomy

Jul. 02, 2013 Rise Set
Actual Time 4:33 AM AKDT 1:36 AM AKDT
Civil Twilight Sun does not rise Sun does not rise
Nautical Twilight Sun does not rise Sun does not rise
Astronomical Twilight Sun does not rise Sun does not rise
Moon 2:24 AM AKDT (7/2) 7:39 PM AKDT (7/2)
Length of Visible Light 24h 00m
Length of Day
21h 02m
Waning Crescent, 25% of the Moon is Illuminated
Jul 2
Waning Crescent
Jul 7
New
Jul 15
First Quarter
Jul 22
Full
Jul 29
Last Quarter

Hourly Weather History & Observations

Time (AKDT) Temp. Windchill Dew Point Humidity Pressure Visibility Wind Dir Wind Speed Gust Speed Precip Events Conditions
12:53 AM 50.0 °F - 46.0 °F 86% 29.34 in 10.0 mi East 10.4 mph - 0.00 in Rain Light Rain
1:53 AM 48.9 °F - 46.0 °F 90% 29.35 in 9.0 mi East 9.2 mph - 0.00 in Rain Light Rain
2:53 AM 48.9 °F - 46.0 °F 90% 29.35 in 10.0 mi East 12.7 mph - 0.02 in Rain Light Rain
3:38 AM 48.2 °F - 46.4 °F 93% 29.35 in 3.0 mi ESE 11.5 mph - 0.02 in Rain Light Rain
3:43 AM 48.2 °F - 46.4 °F 93% 29.35 in 3.0 mi ESE 11.5 mph - 0.02 in Rain Light Rain
3:53 AM 48.0 °F - 46.0 °F 93% 29.35 in 3.0 mi East 10.4 mph - 0.04 in Rain Light Rain
4:45 AM 48.2 °F - 46.4 °F 93% 29.35 in 4.0 mi SE 15.0 mph - 0.03 in Rain Light Rain
4:53 AM 48.0 °F - 46.0 °F 93% 29.36 in 4.0 mi SE 15.0 mph - 0.05 in Rain Light Rain
5:53 AM 48.0 °F - 45.0 °F 89% 29.37 in 10.0 mi ESE 11.5 mph - 0.00 in Rain Light Rain
6:53 AM 48.0 °F - 45.0 °F 89% 29.37 in 10.0 mi SE 11.5 mph - 0.01 in   Overcast
7:53 AM 48.0 °F - 44.1 °F 86% 29.38 in 10.0 mi ESE 11.5 mph - 0.00 in Rain Light Rain
8:53 AM 48.0 °F - 46.0 °F 93% 29.39 in 10.0 mi East 9.2 mph - 0.00 in   Overcast
9:53 AM 46.9 °F - 45.0 °F 93% 29.38 in 6.0 mi SSE 15.0 mph - 0.00 in Rain Light Rain
10:53 AM 46.9 °F - 44.1 °F 90% 29.39 in 7.0 mi SE 11.5 mph - 0.01 in Rain Light Rain
11:49 AM 48.2 °F - 44.6 °F 87% 29.40 in 10.0 mi ESE 15.0 mph - 0.00 in Rain Light Rain
11:53 AM 48.0 °F - 44.1 °F 86% 29.41 in 10.0 mi ESE 16.1 mph - 0.00 in Rain Light Rain
12:53 PM 46.9 °F - 44.1 °F 90% 29.41 in 4.0 mi SE 12.7 mph - 0.00 in Rain Light Rain
1:26 PM 46.4 °F 39.8 °F 44.6 °F 93% 29.41 in 7.0 mi ESE 16.1 mph - 0.06 in Rain Light Rain
1:53 PM 48.9 °F - 45.0 °F 86% 29.42 in 10.0 mi ESE 17.3 mph - 0.07 in Rain Light Rain
2:53 PM 48.9 °F - 45.0 °F 86% 29.43 in 10.0 mi ESE 13.8 mph - 0.00 in   Overcast
3:11 PM 48.2 °F - 44.6 °F 87% 29.43 in 10.0 mi ESE 16.1 mph - N/A   Overcast
3:53 PM 48.9 °F - 45.0 °F 86% 29.43 in 10.0 mi SE 16.1 mph - 0.00 in Rain Light Rain
4:53 PM 48.9 °F - 45.0 °F 86% 29.44 in 10.0 mi SE 18.4 mph - 0.00 in   Overcast
5:01 PM 50.0 °F - 44.6 °F 82% 29.44 in 10.0 mi SE 17.3 mph - N/A   Overcast
5:15 PM 50.0 °F - 44.6 °F 82% 29.43 in 10.0 mi ESE 12.7 mph - N/A   Overcast
5:53 PM 48.9 °F - 45.0 °F 86% 29.45 in 10.0 mi ESE 12.7 mph - 0.00 in Rain Light Rain
6:53 PM 48.9 °F - 46.0 °F 90% 29.45 in 7.0 mi East 13.8 mph - 0.01 in Rain Light Rain
7:00 PM 48.2 °F - 46.4 °F 93% 29.44 in 9.0 mi ESE 11.5 mph - 0.01 in Rain Light Rain
7:53 PM 48.9 °F - 45.0 °F 86% 29.44 in 10.0 mi SE 15.0 mph - 0.03 in Rain Light Rain
8:00 PM 48.2 °F - 46.4 °F 93% 29.44 in 10.0 mi ESE 12.7 mph - 0.00 in   Overcast
8:32 PM 48.2 °F - 46.4 °F 93% 29.44 in 1.8 mi SE 11.5 mph - 0.00 in Rain Light Rain
8:42 PM 46.4 °F 41.1 °F 46.4 °F 100% 29.45 in 5.0 mi SSE 11.5 mph - 0.01 in Rain Light Rain
8:53 PM 48.0 °F - 46.0 °F 93% 29.45 in 5.0 mi SSE 11.5 mph - 0.01 in   Overcast
9:53 PM 46.9 °F - 44.1 °F 90% 29.47 in 10.0 mi South 9.2 mph - 0.00 in Rain Light Rain
10:03 PM 46.4 °F 41.9 °F 44.6 °F 93% 29.47 in 10.0 mi South 9.2 mph - 0.00 in Rain Light Rain
10:53 PM 45.0 °F 41.2 °F 43.0 °F 93% 29.48 in 7.0 mi South 6.9 mph - 0.03 in Rain Light Rain
11:00 PM 44.6 °F 41.4 °F 42.8 °F 93% 29.49 in 7.0 mi South 5.8 mph - 0.00 in Rain Light Rain
11:53 PM 45.0 °F - 43.0 °F 93% 29.50 in 10.0 mi Calm Calm - 0.03 in Rain Light Rain